Location: Berfallen
(47.7333°N, 9.9167°E)
Time: 22:29:19
(UTC+00:00)

Daily predictions for brighter satellites

Satellite Brightness Start Highest point End
(mag) Time Altitude Azimuth Time Altitude Azimuth Time Altitude Azimuth
Cosmos 2227 Rocket 3.0 19:54:47 10° SSE 19:59:41 32° ESE 20:04:38 10° NE
Terra 1.8 19:55:43 10° SSE 20:00:25 79° ENE 20:05:08 10° NNW
COSMOS 2455 3.0 19:54:50 10° NNW 20:00:53 68° NE 20:06:52 10° SE
SPOT 5 3.7 19:57:29 10° S 20:01:49 46° W 20:06:24 10° NNW
Cosmos 2263 Rocket 3.7 20:01:01 10° SE 20:04:44 18° E 20:08:28 10° ENE
USA 276 1.4 20:03:07 10° W 20:05:01 45° SSW 20:07:05 10° SE
RESURS DK-1 3.8 20:04:39 10° SSE 20:07:26 18° ESE 20:10:15 10° ENE
Cosmos 1980 3.8 20:03:47 10° NNW 20:09:29 85° WSW 20:15:07 10° SSE
Cosmos 1300 3.0 20:06:55 10° NNW 20:09:58 49° W 20:13:00 10° S
Okean O Rocket 2.3 20:08:45 10° S 20:12:57 53° W 20:17:11 10° NNW
CZ-4B R/B 4.4 20:08:31 10° SSW 20:13:26 38° W 20:18:21 10° NNW
Spot 2 Rocket 3.6 20:08:34 10° SSE 20:13:36 73° ENE 20:18:41 10° N
Cosmos 1151 Rocket 4.3 20:11:27 10° SSW 20:15:30 43° WNW 20:19:37 10° N
Helios 1B rocket 3.7 20:14:22 10° SSW 20:17:43 33° W 20:21:06 10° NNW
CZ-4B R/B 4.4 20:16:35 10° SSW 20:19:38 27° W 20:22:38 10° NW
USA 238 DEB 4.2 20:15:28 10° NW 20:22:50 70° SW 20:30:45 10° SSE
USA 238 4.2 20:15:33 10° NW 20:22:56 71° SW 20:30:51 10° SSE
ERS-1 Rocket 3.5 20:18:56 10° S 20:23:52 57° W 20:28:48 10° NNW
Cosmos 1437 Rocket 3.8 20:21:19 11° SE 20:23:57 23° E 20:26:51 10° NE
Cosmos 921 Rocket 3.1 20:19:54 10° S 20:24:02 55° ESE 20:28:17 10° NNE
Cosmos 2219 4.4 20:20:49 10° SSE 20:25:12 23° ESE 20:29:38 10° NE
SL-14 R/B 3.2 20:28:14 10° S 20:32:07 73° E 20:36:03 10° NNE
Cosmos 2123 Rocket 4.4 20:27:08 10° SSE 20:33:05 47° E 20:39:01 10° NNE
SL-8 R/B 3.7 20:34:48 10° W 20:39:36 89° NNE 20:44:23 10° E
In-Cosmos 22 4.5 20:34:42 10° SSW 20:40:26 76° WNW 20:46:06 10° N
USA 290 4.2 20:41:32 13° ESE 20:42:05 13° E 20:43:42 10° ENE
Cosmos 2237 Rocket 2.8 20:37:43 10° NW 20:43:12 51° WSW 20:48:41 10° S
Cosmos 1459 Rocket 4.1 20:37:05 10° N 20:43:26 79° E 20:49:28 12° SSE
Cosmos 546 4.5 20:43:12 10° WSW 20:47:00 80° SSE 20:50:49 10° ENE
SL-4 R/B 3.5 20:47:40 16° SSE 20:48:19 17° SE 20:50:59 10° E
Meteor 1-15 Rocket 4.3 20:42:42 10° N 20:48:20 70° ENE 20:53:03 15° SSE
Cosmos 1802 Rocket 4.2 20:41:56 10° N 20:48:22 67° E 20:53:56 14° SSE
Meteor 2-10 Rocket 4.4 20:44:34 10° NNW 20:50:08 53° W 20:55:28 10° S
USA 305 2.3 20:47:26 10° SW 20:51:22 73° SE 20:54:43 10° ENE
Cosmos 1953 3.5 20:50:47 10° NNE 20:54:00 27° ENE 20:56:11 16° ESE
Okean-O 4.4 20:52:01 10° SSW 20:55:44 27° W 20:59:31 10° NW
Cosmos 1633 Rocket 4.1 20:56:01 10° NNW 21:00:05 41° W 21:04:08 10° SSW
Meteor 1-22 Rocket 4.2 20:55:06 10° NNW 21:00:28 79° W 21:05:15 14° S
Lacrosse 4 Rocket 1.5 20:56:58 10° NW 21:01:10 72° WSW 21:04:06 19° SSE
NOSS 3-4 (A) 4.0 20:57:10 10° WSW 21:02:28 57° NW 21:08:23 10° NE
NOSS 3-4 (C) 3.9 20:57:16 10° WSW 21:02:33 57° NW 21:08:29 10° NE
DNEPR-1 R/B 4.3 20:58:50 10° SSW 21:04:44 51° ESE 21:09:38 10° NE
Cosmos 1818 3.7 21:00:00 10° SW 21:05:27 79° NW 21:10:56 10° NE
Cosmos 2016 Rocket 4.1 21:01:12 10° N 21:07:33 78° E 21:12:39 17° SSE
Meteor 2-21 4.5 21:04:58 12° S 21:10:40 72° E 21:16:47 10° NNE
Cosmos 1455 3.9 21:09:08 10° NW 21:11:02 17° W 21:12:56 10° SW
Ariane Rocket 3.4 21:09:58 14° S 21:14:18 57° W 21:19:20 10° NNW
Cosmos 2297 Rocket 3.7 21:09:49 10° WSW 21:15:05 39° NW 21:20:23 10° NNE
USA 59 Rocket 2.5 21:15:26 10° NNE 21:16:23 11° NNE 21:17:21 10° NE
CZ-4C R/B 4.4 21:15:21 10° NE 21:17:52 20° E 21:18:25 20° ESE
SPOT 3 Rocket 4.2 21:14:36 13° S 21:19:05 48° W 21:24:05 10° NNW
GP-B 3.1 21:16:57 10° N 21:21:20 64° E 21:23:59 23° SSE
Cosmos 1269 Rocket 4.1 21:20:32 16° S 21:24:34 58° ESE 21:29:45 10° NNE
Cosmos 2084 Rocket 3.6 21:22:56 10° NW 21:27:01 56° SW 21:29:07 26° SSE
Meteor 1-12 Rocket 4.3 21:21:27 10° N 21:27:22 87° E 21:31:34 21° SSE
ATLAS CENTAUR R/B 2.5 21:26:02 10° WNW 21:29:18 27° WSW 21:31:05 19° SSW
Cosmos 489 Rocket 4.4 21:24:34 10° NNW 21:30:49 88° ENE 21:35:02 22° SSE
Cosmos 1933 Rocket 3.8 21:27:29 10° NNW 21:31:51 63° W 21:34:40 21° S
SL-16 R/B 2.4 21:32:29 10° NNW 21:38:04 63° WSW 21:41:38 23° S
Terra 4.3 21:36:15 10° WSW 21:38:32 13° W 21:40:49 10° WNW
NOSS 3 (A) 4.3 21:36:07 10° NW 21:38:39 88° NE 21:39:33 41° SE
ALOS 2 4.4 21:37:03 14° ESE 21:39:39 22° ENE 21:43:04 10° NNE
Meteor 1-23 Rocket 4.4 21:35:30 11° SSW 21:40:46 69° WNW 21:46:23 10° N
Cosmos 2344 4.2 21:34:18 10° NW 21:42:12 67° NE 21:52:06 12° SE
DELTA 2 DEB (DPAF) 3.7 21:38:25 10° NNE 21:42:21 82° ESE 21:44:30 26° S
Cosmos 1733 Rocket 3.7 21:38:47 10° N 21:42:59 44° ENE 21:45:01 26° SE
Cosmos 2227 Rocket 3.2 21:38:07 10° SW 21:43:32 47° NW 21:49:00 10° NNE
RESURS DK-1 3.3 21:40:43 10° SW 21:44:35 47° NW 21:48:29 10° NNE
Cosmos 2233 Rocket 4.1 21:38:55 10° N 21:45:15 80° W 21:49:37 21° S
Cosmos 1869 Rocket 3.7 21:41:48 10° NNW 21:46:10 69° W 21:48:34 26° S
COSMOS 2455 4.4 21:41:32 10° NW 21:46:17 25° WSW 21:50:27 12° SSW
Meteor 1-21 4.4 21:42:07 15° SSW 21:46:54 78° WNW 21:52:42 10° N
Cosmos 2263 Rocket 2.3 21:42:16 10° SSW 21:47:57 78° WNW 21:53:41 10° NNE
Meteor 1-16 Rocket 4.3 21:42:42 10° NNW 21:48:30 79° W 21:52:16 23° S
Okean 2 3.2 21:50:02 33° S 21:51:40 69° E 21:55:34 10° NNE
Okean 3 3.3 21:50:57 31° S 21:52:47 70° E 21:56:53 10° NNE
CZ-2C R/B 4.1 21:49:44 10° NNE 21:54:07 47° E 21:56:01 30° SSE
IRIDIUM 106 4.4 21:51:50 27° SSE 21:54:43 67° E 21:59:54 10° N
Aureole 3 Rocket 3.7 21:53:20 10° NNE 21:56:12 30° ENE 21:57:14 25° ESE
Cosmos 1943 3.3 21:54:00 10° NNW 21:59:44 74° ENE 22:03:04 26° SE
ASTEX 1 3.5 21:55:03 10° NNE 21:59:59 61° E 22:02:22 30° SSE
SeaSat 1 4.2 21:58:17 10° E 22:02:16 26° NE 22:06:17 10° N
Cosmos 2346 Rocket 4.4 21:59:10 23° S 22:03:17 83° E 22:09:32 10° N
Cosmos 2219 3.6 22:03:10 10° SW 22:08:51 64° WNW 22:14:35 10° NNE
Cosmos 1763 Rocket 3.7 22:04:36 10° NNW 22:09:44 62° ENE 22:12:23 27° SE
MetOp-A 3.7 22:10:28 32° SSE 22:12:44 83° ENE 22:17:18 10° NNW
Cosmos 1862 Rocket 3.6 22:11:30 35° S 22:13:17 69° E 22:17:41 10° NNE
USA 290 3.5 22:14:13 18° WSW 22:16:07 37° WNW 22:19:09 10° N
Cosmos 1271 Rocket 3.9 22:16:29 24° ESE 22:16:55 25° E 22:19:54 10° NE
Cosmos 1603 4.1 22:11:41 10° NNW 22:17:13 56° ENE 22:20:41 23° SE
Cosmos 2082 4.0 22:12:58 12° SW 22:18:18 70° WNW 22:24:02 10° NNE
Cosmos 2292 Rocket 2.7 22:18:13 50° SW 22:18:45 65° W 22:21:39 10° N
USA 305 4.1 22:16:48 10° W 22:20:06 32° NNW 22:22:47 10° NE
Okean 1-7 3.1 22:19:41 38° SSE 22:20:57 55° E 22:24:59 10° NNE
SL-8 R/B 4.1 22:17:14 10° W 22:21:44 42° SSW 22:22:54 35° S
ARIANE 5 R/B 2.6 22:20:49 36° S 22:22:38 83° WSW 22:27:08 10° NNW
SWAS 4.2 22:19:20 10° NNW 22:23:25 84° WSW 22:24:44 42° SSE
SL-4 R/B 1.8 22:21:43 10° SW 22:25:49 70° SSE 22:29:49 10° ENE
Cosmos 1953 3.9 22:26:08 10° NW 22:29:11 24° W 22:30:44 18° SW
Cosmos 1140 Rocket 4.0 22:26:48 16° SW 22:30:51 57° WNW 22:35:56 10° NNE
Spot 4 3.8 22:30:33 35° SSE 22:32:38 88° ENE 22:37:30 10° NNW
Cosmos 1703 3.6 22:34:57 34° SW 22:36:04 48° WNW 22:39:28 10° N
Cosmos 2227 4.1 22:33:33 29° SSW 22:36:32 74° ESE 22:42:08 10° NNE
PSLV R/B 4.2 22:33:10 10° NNE 22:37:16 42° E 22:38:27 34° SE
NOSS 3-1 (C) 4.0 22:30:32 10° NW 22:37:43 79° SW 22:43:29 24° SSE
SJ 16-02 3.0 22:38:57 19° ESE 22:39:36 20° E 22:42:43 10° NE
Cosmos 1072 Rocket 4.4 22:35:56 10° N 22:42:08 87° W 22:45:16 31° S
Cosmos 1892 2.8 22:43:00 40° WSW 22:43:27 44° WNW 22:46:22 10° N
USA 307 2.8 22:54:11 46° SE 22:54:11 46° SE 22:57:45 10° ENE
Cosmos 407 Rocket 3.7 22:50:55 24° SW 22:54:01 64° WNW 22:59:06 10° NNE
Cosmos 2228 Rocket 3.8 22:54:32 26° SW 22:56:39 47° WNW 23:00:58 10° N
Cosmos 1844 Rocket 2.6 22:54:47 30° SSW 22:57:42 82° ESE 23:03:24 10° NNE
Cosmos 1703 Rocket 3.5 22:59:24 44° SSE 23:00:39 69° E 23:04:56 10° NNE
Cosmos 2251 Rocket 3.5 22:59:05 30° SSW 23:01:46 84° WNW 23:07:10 10° NNE
USA 234 3.9 22:55:54 10° ENE 23:01:49 35° SE 23:03:50 29° SSE
Cosmos 1782 Rocket 4.2 22:57:56 10° N 23:02:14 48° ENE 23:03:54 31° SE
Cosmos 1844 3.6 22:59:50 32° SSW 23:02:31 79° ESE 23:08:05 10° NNE
Cosmos 1816 Rocket 4.5 22:59:37 31° S 23:02:53 90° NW 23:09:14 10° N
OPS 6432 4.4 22:59:42 10° NW 23:02:59 66° NE 23:03:35 51° ESE
USA 59 Rocket 0.3 23:02:25 10° NNW 23:05:54 58° NE 23:08:26 23° ESE
Landsat 5 4.2 23:03:57 10° N 23:08:03 46° WNW 23:09:56 27° SW
Cosmos 1954 Rocket 4.0 23:07:46 36° S 23:09:52 72° ESE 23:15:04 10° NNE
ATLAS 3B R/B 4.1 23:04:41 10° NW 23:12:11 44° NE 23:19:30 10° ESE
Cosmos 540 Rocket 3.8 23:07:51 10° NNW 23:12:47 49° WSW 23:14:32 34° SSW
Cosmos 1190 Rocket 4.0 23:12:32 32° SSW 23:15:02 84° WNW 23:20:21 10° NNE
Tsikada Rocket 4.1 23:12:12 31° SSE 23:15:12 67° E 23:21:26 10° NNE
ALOS 2 3.2 23:14:27 34° SW 23:15:43 44° W 23:19:57 10° NNW
Meteor 1-24 Rocket 3.9 23:13:40 33° S 23:16:29 73° E 23:22:23 10° NNE
Cosmos 1606 3.4 23:20:10 10° N 23:22:56 30° ENE 23:23:21 29° E
Cosmos 468 Rocket 4.2 23:18:37 10° NNW 23:23:39 56° WSW 23:25:26 36° SSW
Cosmos 841 Rocket 3.5 23:19:42 10° NNW 23:24:59 77° ENE 23:27:33 31° SSE
NOSS 3-1 (A) 4.0 23:18:52 10° NW 23:26:05 79° SW 23:32:25 20° SSE
ATLAS 2AS CENTAUR R/B 2.9 23:25:06 30° S 23:28:41 59° ESE 23:35:29 10° NE
BREEZE-M DEB (TANK) 3.6 23:28:12 34° S 23:29:23 39° SSE 23:32:23 10° E
Meteor 2-5 Rocket 3.8 23:27:46 33° S 23:30:36 86° E 23:36:36 10° NNE
H-2A R/B 3.8 23:31:18 19° ESE 23:33:02 28° ENE 23:36:11 10° N
Meteor 2-17 Rocket 4.4 23:30:04 32° S 23:33:03 87° W 23:39:09 10° N
Cosmos 2242 Rocket 4.4 23:31:50 30° SE 23:33:21 41° E 23:37:31 10° NNE
Cosmos 2034 Rocket 4.3 23:28:51 10° NNW 23:34:56 58° W 23:37:59 30° SSW
Cosmos 1833 Rocket 3.5 23:33:45 10° NNW 23:39:12 48° NE 23:44:08 12° SE
SeaSat 1 2.5 23:37:33 37° S 23:39:20 62° WSW 23:44:13 10° NW
Cosmos 1908 Rocket 4.5 23:36:48 10° NNW 23:40:48 36° W 23:42:02 30° SW
Cosmos 1271 Rocket 4.3 23:50:19 20° W 23:51:33 24° WNW 23:54:33 10° NNW
